Powrót do katalogu

COSMOS 1285 DEB

LostHEO
NORAD 33526·DEBRIS·🇷🇺 Russia

Wystrzelony Aug 4, 1981 z Plesetsk Cosmodrome

Loading…

Następne Przeloty (najbliższe 24 godziny)

TLE

NieaktualneSource: Space-Track

Epoka: Sep 12, 2011, 21:29 UTC

1 33526U 81071AB  11255.89582722 -.00000077 +00000-0 +10000-3 0  9992
2 33526 066.9178 145.7376 5699344 113.0450 315.2411 01.98032254059774

Śledź COSMOS 1285 DEB w czasie rzeczywistym z AllMySat

Download on the App Store